Regional Weather Roundup
Issued by NWS

Home | Current Version | Previous Version | Graphics & Text | Print | Product List | Glossary On
Versions: 1 2 3 4 5 6 7 8 9 10 11 12 13 14 15 16 17 18 19 20 21 22 23 24 25 26 27 28 29 30 31 32 33 34 35 36 37 38 39 40 41 42 43 44 45 46 47 48 49 50
000
ASUS45 KBOU 261210
RWRCO

WEATHER ROUNDUP FOR COLORADO
NATIONAL WEATHER SERVICE PUEBLO CO
600 AM MDT THU APR 26 2018

NOTE: "FAIR" INDICATES FEW OR NO CLOUDS BELOW 12000 FEET WITH NO
SIGNIFICANT WEATHER AND/OR OBSTRUCTIONS TO VISIBILITY.

COZ001>005-013-030-031-261300-
...NORTHWEST COLORADO...

CITY           SKY/WX    TMP DP  RH WIND       PRES   REMARKS
CRAIG          MOCLDY    35  23  61 CALM      30.24R
HAYDEN         PTCLDY    34  21  59 SW6       30.25R WCI  29
MEEKER         CLEAR     34  24  67 W3        30.23R
RABBIT EARS PA NOT AVBL
STEAMBOAT SPGS FAIR      32  22  66 CALM      30.23R
WALDEN         FAIR      32  19  59 N10       30.27R WCI  24
$$

COZ006>008-011-261300-
...WEST CENTRAL VALLEYS...

CITY           SKY/WX    TMP DP  RH WIND       PRES   REMARKS
GRAND JUNCTION CLEAR     45  15  30 CALM      30.14R
MONTROSE       CLEAR     37  17  44 S5        30.19R
EAGLE          CLEAR     31  19  61 E7        30.24R WCI  24
RIFLE          CLEAR     35  24  64 NE5       30.19R WCI  31
DELTA          NOT AVBL
NUCLA          FAIR      37   9  30 CALM      30.20R
$$

COZ017>023-064>068-261300-
...SOUTHWEST COLORADO...

CITY           SKY/WX    TMP DP  RH WIND       PRES   REMARKS
DURANGO        PTCLDY    30   5  34 NE7       30.11S WCI  23
CORTEZ         PTCLDY    32  10  40 NE6       30.14R WCI  26
PAGOSA SPRINGS FAIR      30  10  42 CALM      30.16R
TELLURIDE      CLEAR     38  11  32 SW3       30.25F
WOLF CREEK PAS CLEAR     30   5  34 NW6       30.35S WCI  24
$$

COZ009-010-012-014-032>034-037-058>063-261300-
...CENTRAL COLORADO...

CITY           SKY/WX    TMP DP  RH WIND       PRES   REMARKS
ASPEN          MOCLDY    31  17  56 S7        30.22R WCI  24
BUENA VISTA    FAIR      34  17  48 W7        30.17S WCI  28
COPPER MTN     NOT AVBL
BERTHOUD PASS  CLOUDY    19   9  63 NW23      30.28S WCI   2
COTTONWOOD PAS CLEAR     41   7  24 N3        30.23R
GUNNISON       CLEAR     24  15  68 E3        30.21R
KREMMLING      PTCLDY    43  21  42 NW9G16    30.24R
LEADVILLE      PTCLDY    28  13  53 N5        30.23R WCI  23
MONARCH PASS   CLEAR     28   3  34 NW12G20   30.39R WCI  18
SALIDA         FAIR      35  17  48 N3        30.24R
SUNLIGHT       CLEAR     30  12  47 N7        30.34S WCI  23
WILKERSON PASS CLOUDY    27  14  59 NE14G20   30.28S WCI  15
$$

COZ069>075-261300-
...SAN LUIS VALLEY/SANGRE DE CRISTO MOUNTAINS...

CITY           SKY/WX    TMP DP  RH WIND       PRES   REMARKS
ALAMOSA        PTCLDY    29  11  47 W3        30.14R
DEL NORTE      FAIR      35   6  29 S6        30.17R WCI  30
LA VETA PASS   PTCLDY    36   3  25 W7        30.33R
SAGUACHE       NOT AVBL
$$

COZ035-036-038>040-261300-
...NORTHERN COLORADO FRONT RANGE...

CITY           SKY/WX    TMP DP  RH WIND       PRES   REMARKS
DENVER INTL AP MOCLDY    45  27  49 N21G29    30.17R
DMNS CITY PARK NOT AVBL
AURORA         MOCLDY    45  27  49 N16G25    30.19R
FRONT RANGE AP CLOUDY    46  29  51 N20G30    30.19R
ERIE MUNI ARPT CLOUDY    47  25  43 NE14G21   30.22R
BOULDER MUN AP FAIR      45  27  49 N7        30.17R
CENTENNIAL     CLOUDY    45  27  49 N17G31    30.19R
BROOMFIELD     MOCLDY    45  27  49 N16G23    30.17R
LOVELAND       PTCLDY    46  28  49 N30G36    30.16R
LONGMONT       FAIR      48  27  44 N12       30.18R
$$

COZ041-046-047-076>085-087-088-261300-
...PIKES PEAK/PALMER DIVIDE AND SOUTHERN FOOTHILLS...

CITY           SKY/WX    TMP DP  RH WIND       PRES   REMARKS
COLO. SPRINGS  MOCLDY    45  25  45 NW28G41   30.16R
A. F. ACADEMY  PTCLDY    42  24  48 N21G31    30.17R
SCHRIEVER AFB  NOT AVBL
CHEYENNE MTN   NOT AVBL
ELLICOTT         N/A    N/A N/A N/A N31G45    30.09R
FALCON         FAIR      40  22  49 N31G45    30.14R
FORT CARSON    MOCLDY    48  23  38 N39G51    30.09R
LIMON          CLOUDY    43  28  55 NW22G33   30.10R
MONUMENT HILL  PTCLDY    36  25  64 N15G25    30.21S
CANON CITY     FAIR      50  27  40 NW13G20   30.06R
WALSENBURG     FAIR      43  27  52 N14       30.13R
TRINIDAD       PTCLDY    43  27  53 W14       30.01S
$$

COZ042>045-048>051-090-091-261300-
...NORTHEAST COLORADO...

CITY           SKY/WX    TMP DP  RH WIND       PRES   REMARKS
GREELEY ARPT   PTCLDY    46  30  53 N25       30.17R
AKRON          CLOUDY    44  29  55 N26G43    30.09R
BURLINGTON     CLOUDY    47  32  56 NW21G32   29.99R
WRAY           FAIR      50  30  46 N29G43    30.00R
YUMA           NOT AVBL
STERLING       NOT AVBL
HOLYOKE        FAIR      54  34  47 N30G36    30.03R
FORT MORGAN    FAIR      46  26  45 N29G36    30.12R
$$

COZ086-089-092>099-261300-
...SOUTHEAST COLORADO...

CITY           SKY/WX    TMP DP  RH WIND       PRES   REMARKS
PUEBLO         CLOUDY    52  26  36 N29G44    30.04R
LA JUNTA       PTCLDY    42  30  62 NW12      30.00R
LAMAR          PTCLDY    33  30  88 MISG      29.95R
SPRINGFIELD      N/A     37  30  75 SW8       29.92R
$$




USA.gov is the U.S. government's official web portal to all federal, state and local government web resources and services.